Time,TemperatureF,DewpointF,PressureIn,WindDirection,WindDirectionDegrees,WindSpeedMPH,WindSpeedGustMPH,Humidity,HourlyPrecipIn,Conditions,Clouds,dailyrainin,SoftwareType,DateUTC
2013-01-26 00:04:00,15.5,10.7,30.24,North,355,2.0,5.0,81,0.00,,,0.00,Wunderground v.1.15,2013-01-26 06:04:00,
2013-01-26 00:09:00,15.3,10.5,30.25,NNW,336,4.0,5.0,81,0.00,,,0.00,Wunderground v.1.15,2013-01-26 06:09:00,
2013-01-26 00:14:00,15.3,10.5,30.25,NW,313,4.0,5.0,81,0.00,,,0.00,Wunderground v.1.15,2013-01-26 06:14:00,
2013-01-26 00:19:00,15.2,10.4,30.25,NNW,329,4.0,5.0,81,0.00,,,0.00,Wunderground v.1.15,2013-01-26 06:19:00,
2013-01-26 00:24:00,15.1,10.3,30.25,NW,312,5.0,5.0,81,0.00,,,0.00,Wunderground v.1.15,2013-01-26 06:24:00,
2013-01-26 00:29:00,15.0,10.2,30.26,NW,321,6.0,10.0,81,0.00,,,0.00,Wunderground v.1.15,2013-01-26 06:29:00,
2013-01-26 00:34:00,14.9,10.1,30.26,NNW,342,5.0,5.0,81,0.00,,,0.00,Wunderground v.1.15,2013-01-26 06:34:00,
2013-01-26 00:39:00,14.8,10.0,30.26,NNW,329,5.0,5.0,81,0.00,,,0.00,Wunderground v.1.15,2013-01-26 06:39:00,
2013-01-26 00:45:00,14.7,9.9,30.26,NW,320,2.0,6.0,81,0.00,,,0.00,Wunderground v.1.15,2013-01-26 06:45:00,
2013-01-26 00:50:00,14.6,9.8,30.26,NNW,329,5.0,5.0,81,0.00,,,0.00,Wunderground v.1.15,2013-01-26 06:50:00,
2013-01-26 00:55:00,14.5,9.7,30.26,North,360,4.0,9.0,81,0.00,,,0.00,Wunderground v.1.15,2013-01-26 06:55:00,
2013-01-26 01:00:00,14.3,9.5,30.26,NNW,338,5.0,5.0,81,0.00,,,0.00,Wunderground v.1.15,2013-01-26 07:00:00,
2013-01-26 01:06:00,14.2,9.4,30.26,NNW,340,3.0,6.0,81,0.00,,,0.00,Wunderground v.1.15,2013-01-26 07:06:00,
2013-01-26 01:12:00,14.3,9.5,30.27,North,355,6.0,6.0,81,0.00,,,0.00,Wunderground v.1.15,2013-01-26 07:12:00,
2013-01-26 01:17:00,14.1,9.1,30.27,NNE,15,4.0,6.0,80,0.00,,,0.00,Wunderground v.1.15,2013-01-26 07:17:00,
2013-01-26 01:22:00,14.1,9.1,30.27,NNW,327,4.0,5.0,80,0.00,,,0.00,Wunderground v.1.15,2013-01-26 07:22:00,
2013-01-26 01:27:00,13.9,8.9,30.27,NNW,327,4.0,5.0,80,0.00,,,0.00,Wunderground v.1.15,2013-01-26 07:27:00,
2013-01-26 01:32:00,12.3,7.6,30.28,NNW,327,0.0,4.0,81,0.00,,,0.00,Wunderground v.1.15,2013-01-26 07:32:00,
2013-01-26 01:37:00,12.2,7.5,30.27,NNW,333,0.0,4.0,81,0.00,,,0.00,Wunderground v.1.15,2013-01-26 07:37:00,
2013-01-26 01:42:00,12.1,7.4,30.28,NW,312,0.0,0.0,81,0.00,,,0.00,Wunderground v.1.15,2013-01-26 07:42:00,
2013-01-26 01:47:00,11.9,7.2,30.28,North,355,0.0,0.0,81,0.00,,,0.00,Wunderground v.1.15,2013-01-26 07:47:00,
2013-01-26 01:52:00,11.9,7.2,30.28,NW,323,0.0,0.0,81,0.00,,,0.00,Wunderground v.1.15,2013-01-26 07:52:00,
2013-01-26 01:58:00,11.8,7.1,30.29,NW,309,0.0,1.0,81,0.00,,,0.00,Wunderground v.1.15,2013-01-26 07:58:00,
2013-01-26 02:04:00,11.8,7.1,30.29,NW,318,0.0,0.0,81,0.00,,,0.00,Wunderground v.1.15,2013-01-26 08:04:00,
2013-01-26 02:09:00,11.7,7.0,30.29,North,355,0.0,1.0,81,0.00,,,0.00,Wunderground v.1.15,2013-01-26 08:09:00,
2013-01-26 02:14:00,11.7,7.0,30.29,NNW,334,0.0,1.0,81,0.00,,,0.00,Wunderground v.1.15,2013-01-26 08:14:00,
2013-01-26 02:19:00,11.5,6.5,30.29,NNW,334,0.0,1.0,80,0.00,,,0.00,Wunderground v.1.15,2013-01-26 08:19:00,
2013-01-26 02:24:00,11.4,6.7,30.29,NNW,334,0.0,1.0,81,0.00,,,0.00,Wunderground v.1.15,2013-01-26 08:24:00,
2013-01-26 02:29:00,11.3,6.6,30.29,NW,306,1.0,1.0,81,0.00,,,0.00,Wunderground v.1.15,2013-01-26 08:29:00,
2013-01-26 02:34:00,11.2,6.5,30.29,NNW,331,0.0,2.0,81,0.00,,,0.00,Wunderground v.1.15,2013-01-26 08:34:00,
2013-01-26 02:40:00,11.1,6.4,30.30,WNW,296,0.0,0.0,81,0.00,,,0.00,Wunderground v.1.15,2013-01-26 08:40:00,
2013-01-26 02:46:00,11.0,6.3,30.29,WNW,298,0.0,1.0,81,0.00,,,0.00,Wunderground v.1.15,2013-01-26 08:46:00,
2013-01-26 02:52:00,10.9,6.2,30.30,WNW,298,0.0,0.0,81,0.00,,,0.00,Wunderground v.1.15,2013-01-26 08:52:00,
2013-01-26 02:57:00,10.8,6.1,30.30,WNW,298,0.0,2.0,81,0.00,,,0.00,Wunderground v.1.15,2013-01-26 08:57:00,
2013-01-26 03:02:00,10.7,6.0,30.30,WNW,302,1.0,1.0,81,0.00,,,0.00,Wunderground v.1.15,2013-01-26 09:02:00,
2013-01-26 03:07:00,10.6,5.9,30.30,WNW,302,2.0,2.0,81,0.00,,,0.00,Wunderground v.1.15,2013-01-26 09:07:00,
2013-01-26 03:13:00,10.4,5.7,30.30,NW,312,0.0,2.0,81,0.00,,,0.00,Wunderground v.1.15,2013-01-26 09:13:00,
2013-01-26 03:18:00,10.4,5.7,30.31,NNW,327,3.0,3.0,81,0.00,,,0.00,Wunderground v.1.15,2013-01-26 09:18:00,
2013-01-26 03:23:00,10.2,5.5,30.31,North,349,0.0,3.0,81,0.00,,,0.00,Wunderground v.1.15,2013-01-26 09:23:00,
2013-01-26 03:28:00,10.1,5.4,30.32,North,349,0.0,3.0,81,0.00,,,0.00,Wunderground v.1.15,2013-01-26 09:28:00,
2013-01-26 03:34:00,9.9,5.2,30.32,NNE,22,0.0,2.0,81,0.00,,,0.00,Wunderground v.1.15,2013-01-26 09:34:00,
2013-01-26 03:39:00,9.9,5.5,30.32,NNE,23,0.0,2.0,82,0.00,,,0.00,Wunderground v.1.15,2013-01-26 09:39:00,
2013-01-26 03:44:00,9.8,5.4,30.32,NNE,22,0.0,2.0,82,0.00,,,0.00,Wunderground v.1.15,2013-01-26 09:44:00,
2013-01-26 03:49:00,9.7,5.3,30.32,NNE,22,0.0,2.0,82,0.00,,,0.00,Wunderground v.1.15,2013-01-26 09:49:00,
2013-01-26 03:54:00,9.5,5.1,30.32,NNW,344,0.0,0.0,82,0.00,,,0.00,Wunderground v.1.15,2013-01-26 09:54:00,
2013-01-26 03:59:00,9.4,5.0,30.33,NNW,344,0.0,2.0,82,0.00,,,0.00,Wunderground v.1.15,2013-01-26 09:59:00,
2013-01-26 04:04:00,9.4,5.0,30.32,NNW,343,0.0,3.0,82,0.00,,,0.00,Wunderground v.1.15,2013-01-26 10:04:00,
2013-01-26 04:09:00,9.3,4.9,30.32,North,5,0.0,3.0,82,0.00,,,0.00,Wunderground v.1.15,2013-01-26 10:09:00,
2013-01-26 04:14:00,9.2,4.8,30.32,North,360,0.0,2.0,82,0.00,,,0.00,Wunderground v.1.15,2013-01-26 10:14:00,
2013-01-26 04:19:00,9.1,4.7,30.32,NNE,15,0.0,2.0,82,0.00,,,0.00,Wunderground v.1.15,2013-01-26 10:19:00,
2013-01-26 04:24:00,9.0,4.6,30.32,NNW,331,1.0,2.0,82,0.00,,,0.00,Wunderground v.1.15,2013-01-26 10:24:00,
2013-01-26 04:29:00,8.9,4.5,30.32,NNW,331,0.0,2.0,82,0.00,,,0.00,Wunderground v.1.15,2013-01-26 10:29:00,
2013-01-26 04:35:00,8.7,4.6,30.32,NNW,337,0.0,2.0,83,0.00,,,0.00,Wunderground v.1.15,2013-01-26 10:35:00,
2013-01-26 04:40:00,8.6,4.5,30.32,NNW,337,0.0,0.0,83,0.00,,,0.00,Wunderground v.1.15,2013-01-26 10:40:00,
2013-01-26 04:45:00,8.5,4.4,30.32,NNW,337,0.0,1.0,83,0.00,,,0.00,Wunderground v.1.15,2013-01-26 10:45:00,
2013-01-26 04:50:00,8.4,4.3,30.33,NNW,337,0.0,0.0,83,0.00,,,0.00,Wunderground v.1.15,2013-01-26 10:50:00,
2013-01-26 04:55:00,8.2,4.1,30.32,NNW,337,0.0,0.0,83,0.00,,,0.00,Wunderground v.1.15,2013-01-26 10:55:00,
2013-01-26 05:01:00,8.1,4.0,30.33,NNW,337,0.0,0.0,83,0.00,,,0.00,Wunderground v.1.15,2013-01-26 11:01:00,
2013-01-26 05:06:00,8.0,3.9,30.33,NNW,337,0.0,0.0,83,0.00,,,0.00,Wunderground v.1.15,2013-01-26 11:06:00,
2013-01-26 05:11:00,7.9,3.8,30.33,NNW,337,0.0,0.0,83,0.00,,,0.00,Wunderground v.1.15,2013-01-26 11:11:00,
2013-01-26 05:16:00,7.7,3.6,30.33,NNW,337,0.0,0.0,83,0.00,,,0.00,Wunderground v.1.15,2013-01-26 11:16:00,
2013-01-26 05:21:00,7.6,3.5,30.34,NNW,337,0.0,0.0,83,0.00,,,0.00,Wunderground v.1.15,2013-01-26 11:21:00,
2013-01-26 05:26:00,7.3,3.2,30.34,NNW,337,0.0,0.0,83,0.00,,,0.00,Wunderground v.1.15,2013-01-26 11:26:00,
2013-01-26 05:32:00,7.1,3.3,30.34,NNW,337,0.0,0.0,84,0.00,,,0.00,Wunderground v.1.15,2013-01-26 11:32:00,
2013-01-26 05:37:00,6.8,3.0,30.34,NNW,337,0.0,0.0,84,0.00,,,0.00,Wunderground v.1.15,2013-01-26 11:37:00,
2013-01-26 05:42:00,6.7,2.9,30.34,NNW,337,0.0,0.0,84,0.00,,,0.00,Wunderground v.1.15,2013-01-26 11:42:00,
2013-01-26 05:47:00,6.5,2.7,30.34,NNW,337,0.0,0.0,84,0.00,,,0.00,Wunderground v.1.15,2013-01-26 11:47:00,
2013-01-26 05:52:00,6.4,2.6,30.34,NNW,337,0.0,0.0,84,0.00,,,0.00,Wunderground v.1.15,2013-01-26 11:52:00,
2013-01-26 05:58:00,6.2,2.4,30.35,NNW,337,0.0,0.0,84,0.00,,,0.00,Wunderground v.1.15,2013-01-26 11:58:00,
2013-01-26 06:03:00,6.1,2.6,30.35,NNW,337,0.0,0.0,85,0.00,,,0.00,Wunderground v.1.15,2013-01-26 12:03:00,
2013-01-26 06:09:00,6.0,2.5,30.35,NNW,337,0.0,0.0,85,0.00,,,0.00,Wunderground v.1.15,2013-01-26 12:09:00,
2013-01-26 06:14:00,6.0,2.5,30.36,NNW,337,0.0,0.0,85,0.00,,,0.00,Wunderground v.1.15,2013-01-26 12:14:00,
2013-01-26 06:20:00,5.9,2.4,30.36,NNW,337,0.0,0.0,85,0.00,,,0.00,Wunderground v.1.15,2013-01-26 12:20:00,
2013-01-26 06:25:00,5.8,2.3,30.36,NNW,337,0.0,0.0,85,0.00,,,0.00,Wunderground v.1.15,2013-01-26 12:25:00,
2013-01-26 06:30:00,5.7,2.2,30.37,NNW,337,0.0,0.0,85,0.00,,,0.00,Wunderground v.1.15,2013-01-26 12:30:00,
2013-01-26 06:35:00,5.6,2.3,30.37,NNW,337,0.0,0.0,86,0.00,,,0.00,Wunderground v.1.15,2013-01-26 12:35:00,
2013-01-26 06:40:00,5.6,2.3,30.37,NNW,337,0.0,0.0,86,0.00,,,0.00,Wunderground v.1.15,2013-01-26 12:40:00,
2013-01-26 06:45:00,5.5,2.2,30.37,NNW,337,0.0,0.0,86,0.00,,,0.00,Wunderground v.1.15,2013-01-26 12:45:00,
2013-01-26 06:50:00,5.4,2.1,30.37,NNW,337,0.0,0.0,86,0.00,,,0.00,Wunderground v.1.15,2013-01-26 12:50:00,
2013-01-26 06:55:00,5.4,2.1,30.38,NNW,337,0.0,0.0,86,0.00,,,0.00,Wunderground v.1.15,2013-01-26 12:55:00,
2013-01-26 07:00:00,5.4,2.4,30.38,NNW,337,0.0,0.0,87,0.00,,,0.00,Wunderground v.1.15,2013-01-26 13:00:00,
2013-01-26 07:05:00,5.4,2.4,30.37,NNW,337,0.0,0.0,87,0.00,,,0.00,Wunderground v.1.15,2013-01-26 13:05:00,
2013-01-26 07:11:00,5.4,2.4,30.38,NNW,337,0.0,0.0,87,0.00,,,0.00,Wunderground v.1.15,2013-01-26 13:11:00,
2013-01-26 07:16:00,5.4,2.4,30.38,NNW,337,0.0,0.0,87,0.00,,,0.00,Wunderground v.1.15,2013-01-26 13:16:00,
2013-01-26 07:22:00,5.4,2.4,30.39,NNW,337,0.0,0.0,87,0.00,,,0.00,Wunderground v.1.15,2013-01-26 13:22:00,
2013-01-26 07:27:00,5.4,2.4,30.39,NNW,337,0.0,0.0,87,0.00,,,0.00,Wunderground v.1.15,2013-01-26 13:27:00,
2013-01-26 07:32:00,5.4,2.4,30.39,NNW,337,0.0,0.0,87,0.00,,,0.00,Wunderground v.1.15,2013-01-26 13:32:00,
2013-01-26 07:38:00,5.4,2.4,30.40,NNW,337,0.0,0.0,87,0.00,,,0.00,Wunderground v.1.15,2013-01-26 13:38:00,
2013-01-26 07:43:00,5.4,2.4,30.40,NNW,337,0.0,0.0,87,0.00,,,0.00,Wunderground v.1.15,2013-01-26 13:43:00,
2013-01-26 07:48:00,5.4,2.4,30.40,NNW,337,0.0,0.0,87,0.00,,,0.00,Wunderground v.1.15,2013-01-26 13:48:00,
2013-01-26 07:53:00,5.7,2.7,30.40,NNW,337,0.0,0.0,87,0.00,,,0.00,Wunderground v.1.15,2013-01-26 13:53:00,
2013-01-26 07:58:00,5.9,2.9,30.41,NNW,337,0.0,0.0,87,0.00,,,0.00,Wunderground v.1.15,2013-01-26 13:58:00,
2013-01-26 08:03:00,6.3,3.3,30.41,NNW,337,0.0,0.0,87,0.00,,,0.00,Wunderground v.1.15,2013-01-26 14:03:00,
2013-01-26 08:08:00,6.7,3.7,30.41,NNW,337,0.0,0.0,87,0.00,,,0.00,Wunderground v.1.15,2013-01-26 14:08:00,
2013-01-26 08:13:00,7.1,4.0,30.41,NNW,337,0.0,0.0,87,0.00,,,0.00,Wunderground v.1.15,2013-01-26 14:13:00,
2013-01-26 08:18:00,7.4,4.3,30.42,NNW,337,1.0,1.0,87,0.00,,,0.00,Wunderground v.1.15,2013-01-26 14:18:00,
2013-01-26 08:23:00,7.8,4.7,30.42,NNW,337,0.0,0.0,87,0.00,,,0.00,Wunderground v.1.15,2013-01-26 14:23:00,
2013-01-26 08:28:00,8.1,4.8,30.42,NNW,337,0.0,1.0,86,0.00,,,0.00,Wunderground v.1.15,2013-01-26 14:28:00,
2013-01-26 08:33:00,8.5,5.2,30.42,WNW,284,0.0,1.0,86,0.00,,,0.00,Wunderground v.1.15,2013-01-26 14:33:00,
2013-01-26 08:39:00,8.8,5.2,30.42,NNW,327,0.0,1.0,85,0.00,,,0.00,Wunderground v.1.15,2013-01-26 14:39:00,
2013-01-26 08:44:00,9.1,5.5,30.42,NW,326,0.0,1.0,85,0.00,,,0.00,Wunderground v.1.15,2013-01-26 14:44:00,
2013-01-26 08:49:00,9.4,5.8,30.42,NNW,327,0.0,1.0,85,0.00,,,0.00,Wunderground v.1.15,2013-01-26 14:49:00,
2013-01-26 08:54:00,9.6,5.7,30.42,NW,309,0.0,0.0,84,0.00,,,0.00,Wunderground v.1.15,2013-01-26 14:54:00,
2013-01-26 08:59:00,9.9,5.8,30.43,NNE,13,0.0,0.0,83,0.00,,,0.00,Wunderground v.1.15,2013-01-26 14:59:00,
2013-01-26 09:05:00,10.0,5.9,30.43,WNW,291,0.0,0.0,83,0.00,,,0.00,Wunderground v.1.15,2013-01-26 15:05:00,
2013-01-26 09:10:00,10.4,6.3,30.43,NNW,334,0.0,0.0,83,0.00,,,0.00,Wunderground v.1.15,2013-01-26 15:10:00,
2013-01-26 09:15:00,10.7,6.3,30.43,NW,311,0.0,1.0,82,0.00,,,0.00,Wunderground v.1.15,2013-01-26 15:15:00,
2013-01-26 09:20:00,11.0,6.3,30.44,NW,319,0.0,0.0,81,0.00,,,0.00,Wunderground v.1.15,2013-01-26 15:20:00,
2013-01-26 09:25:00,11.1,6.1,30.44,NNW,338,0.0,1.0,80,0.00,,,0.00,Wunderground v.1.15,2013-01-26 15:25:00,
2013-01-26 09:30:00,11.3,6.3,30.44,NW,315,0.0,0.0,80,0.00,,,0.00,Wunderground v.1.15,2013-01-26 15:30:00,
2013-01-26 09:35:00,11.7,6.7,30.44,WNW,299,0.0,0.0,80,0.00,,,0.00,Wunderground v.1.15,2013-01-26 15:35:00,
2013-01-26 09:40:00,11.8,6.3,30.44,NW,326,0.0,0.0,78,0.00,,,0.00,Wunderground v.1.15,2013-01-26 15:40:00,
2013-01-26 09:45:00,12.0,6.5,30.44,NW,326,0.0,0.0,78,0.00,,,0.00,Wunderground v.1.15,2013-01-26 15:45:00,
2013-01-26 09:50:00,12.3,6.5,30.44,WSW,246,0.0,0.0,77,0.00,,,0.00,Wunderground v.1.15,2013-01-26 15:50:00,
2013-01-26 09:55:00,12.5,6.7,30.44,NNW,339,0.0,0.0,77,0.00,,,0.00,Wunderground v.1.15,2013-01-26 15:55:00,
2013-01-26 10:01:00,12.8,6.9,30.45,WNW,286,0.0,0.0,77,0.00,,,0.00,Wunderground v.1.15,2013-01-26 16:01:00,
2013-01-26 10:06:00,13.2,7.0,30.45,NW,319,0.0,0.0,76,0.00,,,0.00,Wunderground v.1.15,2013-01-26 16:06:00,
2013-01-26 10:11:00,13.7,7.5,30.45,NW,319,0.0,0.0,76,0.00,,,0.00,Wunderground v.1.15,2013-01-26 16:11:00,
2013-01-26 10:16:00,13.9,7.4,30.45,NNE,32,0.0,1.0,75,0.00,,,0.00,Wunderground v.1.15,2013-01-26 16:16:00,
2013-01-26 10:22:00,13.9,7.1,30.45,NNE,27,0.0,1.0,74,0.00,,,0.00,Wunderground v.1.15,2013-01-26 16:22:00,
2013-01-26 10:27:00,14.0,7.2,30.45,NW,322,0.0,1.0,74,0.00,,,0.00,Wunderground v.1.15,2013-01-26 16:27:00,
2013-01-26 10:32:00,14.3,7.5,30.45,NNW,330,0.0,0.0,74,0.00,,,0.00,Wunderground v.1.15,2013-01-26 16:32:00,
2013-01-26 10:37:00,14.6,7.8,30.45,WNW,282,0.0,1.0,74,0.00,,,0.00,Wunderground v.1.15,2013-01-26 16:37:00,
2013-01-26 10:42:00,14.8,7.7,30.45,NNE,33,0.0,1.0,73,0.00,,,0.00,Wunderground v.1.15,2013-01-26 16:42:00,
2013-01-26 10:48:00,14.8,7.7,30.45,NNE,23,0.0,1.0,73,0.00,,,0.00,Wunderground v.1.15,2013-01-26 16:48:00,
2013-01-26 10:53:00,14.9,7.8,30.45,NNE,17,0.0,1.0,73,0.00,,,0.00,Wunderground v.1.15,2013-01-26 16:53:00,
2013-01-26 10:59:00,15.0,7.6,30.45,NNE,12,0.0,1.0,72,0.00,,,0.00,Wunderground v.1.15,2013-01-26 16:59:00,
2013-01-26 11:04:00,18.2,10.4,30.46,North,350,1.0,4.0,71,0.00,,,0.00,Wunderground v.1.15,2013-01-26 17:04:00,
2013-01-26 11:09:00,18.5,10.7,30.45,North,349,1.0,5.0,71,0.00,,,0.00,Wunderground v.1.15,2013-01-26 17:09:00,
2013-01-26 11:14:00,18.8,10.9,30.45,NNW,346,3.0,6.0,71,0.00,,,0.00,Wunderground v.1.15,2013-01-26 17:14:00,
2013-01-26 11:19:00,18.9,10.7,30.45,NNE,30,2.0,6.0,70,0.00,,,0.00,Wunderground v.1.15,2013-01-26 17:19:00,
2013-01-26 11:24:00,19.1,10.9,30.45,NNW,336,5.0,5.0,70,0.00,,,0.00,Wunderground v.1.15,2013-01-26 17:24:00,
2013-01-26 11:29:00,19.6,11.4,30.45,NW,325,6.0,6.0,70,0.00,,,0.00,Wunderground v.1.15,2013-01-26 17:29:00,
2013-01-26 11:34:00,19.9,11.4,30.45,NE,36,0.0,6.0,69,0.00,,,0.00,Wunderground v.1.15,2013-01-26 17:34:00,
2013-01-26 11:39:00,20.0,11.5,30.44,NNW,340,5.0,6.0,69,0.00,,,0.00,Wunderground v.1.15,2013-01-26 17:39:00,
2013-01-26 11:44:00,20.2,11.7,30.45,NNE,21,2.0,4.0,69,0.00,,,0.00,Wunderground v.1.15,2013-01-26 17:44:00,
2013-01-26 11:49:00,20.4,11.8,30.44,North,355,1.0,6.0,69,0.00,,,0.00,Wunderground v.1.15,2013-01-26 17:49:00,
2013-01-26 11:55:00,20.6,11.7,30.43,NNW,342,3.0,4.0,68,0.00,,,0.00,Wunderground v.1.15,2013-01-26 17:55:00,
2013-01-26 12:00:00,20.9,12.0,30.43,NNW,348,3.0,3.0,68,0.00,,,0.00,Wunderground v.1.15,2013-01-26 18:00:00,
2013-01-26 12:05:00,21.1,11.8,30.43,NNE,14,1.0,5.0,67,0.00,,,0.00,Wunderground v.1.15,2013-01-26 18:05:00,
2013-01-26 12:10:00,21.2,11.9,30.43,North,5,0.0,2.0,67,0.00,,,0.00,Wunderground v.1.15,2013-01-26 18:10:00,
2013-01-26 12:16:00,21.4,11.8,30.43,NNW,327,2.0,6.0,66,0.00,,,0.00,Wunderground v.1.15,2013-01-26 18:16:00,
2013-01-26 12:22:00,21.4,11.5,30.44,NNW,340,3.0,4.0,65,0.00,,,0.00,Wunderground v.1.15,2013-01-26 18:22:00,
2013-01-26 12:27:00,21.9,12.6,30.43,ENE,73,1.0,4.0,67,0.00,,,0.00,Wunderground v.1.15,2013-01-26 18:27:00,
2013-01-26 12:32:00,22.2,12.9,30.42,North,355,1.0,3.0,67,0.00,,,0.00,Wunderground v.1.15,2013-01-26 18:32:00,
2013-01-26 12:38:00,22.4,12.8,30.43,North,351,4.0,4.0,66,0.00,,,0.00,Wunderground v.1.15,2013-01-26 18:38:00,
2013-01-26 12:43:00,22.7,13.0,30.43,NNE,26,2.0,4.0,66,0.00,,,0.00,Wunderground v.1.15,2013-01-26 18:43:00,
2013-01-26 12:48:00,23.0,13.0,30.43,NNE,28,2.0,4.0,65,0.00,,,0.00,Wunderground v.1.15,2013-01-26 18:48:00,
2013-01-26 12:53:00,23.1,12.7,30.43,NNE,30,3.0,4.0,64,0.00,,,0.00,Wunderground v.1.15,2013-01-26 18:53:00,
2013-01-26 12:58:00,22.8,12.1,30.43,NNW,329,0.0,4.0,63,0.00,,,0.00,Wunderground v.1.15,2013-01-26 18:58:00,
2013-01-26 13:03:00,22.9,12.5,30.43,NW,317,3.0,5.0,64,0.00,,,0.00,Wunderground v.1.15,2013-01-26 19:03:00,
2013-01-26 13:08:00,22.8,12.4,30.42,NW,314,0.0,5.0,64,0.00,,,0.00,Wunderground v.1.15,2013-01-26 19:08:00,
2013-01-26 13:14:00,23.0,13.0,30.42,NNW,336,2.0,3.0,65,0.00,,,0.00,Wunderground v.1.15,2013-01-26 19:14:00,
2013-01-26 13:19:00,22.8,11.7,30.42,NW,312,4.0,5.0,62,0.00,,,0.00,Wunderground v.1.15,2013-01-26 19:19:00,
2013-01-26 13:24:00,22.8,12.4,30.43,North,355,1.0,2.0,64,0.00,,,0.00,Wunderground v.1.15,2013-01-26 19:24:00,
2013-01-26 13:29:00,23.0,11.9,30.43,West,281,1.0,4.0,62,0.00,,,0.00,Wunderground v.1.15,2013-01-26 19:29:00,
2013-01-26 13:34:00,23.3,12.2,30.42,NNW,346,2.0,4.0,62,0.00,,,0.00,Wunderground v.1.15,2013-01-26 19:34:00,
2013-01-26 13:40:00,23.6,12.5,30.42,North,355,0.0,3.0,62,0.00,,,0.00,Wunderground v.1.15,2013-01-26 19:40:00,
2013-01-26 13:45:00,23.7,12.2,30.42,North,360,1.0,8.0,61,0.00,,,0.00,Wunderground v.1.15,2013-01-26 19:45:00,
2013-01-26 13:50:00,23.8,12.3,30.42,North,355,0.0,2.0,61,0.00,,,0.00,Wunderground v.1.15,2013-01-26 19:50:00,
2013-01-26 13:55:00,24.0,12.9,30.42,NW,306,2.0,4.0,62,0.00,,,0.00,Wunderground v.1.15,2013-01-26 19:55:00,
2013-01-26 14:00:00,24.2,12.7,30.42,West,278,0.0,2.0,61,0.00,,,0.00,Wunderground v.1.15,2013-01-26 20:00:00,
2013-01-26 14:05:00,24.5,12.6,30.42,North,355,2.0,4.0,60,0.00,,,0.00,Wunderground v.1.15,2013-01-26 20:05:00,
2013-01-26 14:10:00,24.6,12.7,30.43,ENE,59,2.0,2.0,60,0.00,,,0.00,Wunderground v.1.15,2013-01-26 20:10:00,
2013-01-26 14:15:00,24.7,12.8,30.42,NW,320,4.0,4.0,60,0.00,,,0.00,Wunderground v.1.15,2013-01-26 20:15:00,
2013-01-26 14:21:00,24.5,12.6,30.42,NNE,24,2.0,3.0,60,0.00,,,0.00,Wunderground v.1.15,2013-01-26 20:21:00,
2013-01-26 14:26:00,24.5,12.2,30.42,NNW,347,1.0,3.0,59,0.00,,,0.00,Wunderground v.1.15,2013-01-26 20:26:00,
2013-01-26 14:31:00,24.8,12.9,30.42,NW,313,2.0,3.0,60,0.00,,,0.00,Wunderground v.1.15,2013-01-26 20:31:00,
2013-01-26 14:36:00,24.9,13.0,30.43,North,5,1.0,4.0,60,0.00,,,0.00,Wunderground v.1.15,2013-01-26 20:36:00,
2013-01-26 14:42:00,25.1,12.8,30.42,NE,36,2.0,2.0,59,0.00,,,0.00,Wunderground v.1.15,2013-01-26 20:42:00,
2013-01-26 14:47:00,25.1,12.8,30.43,NNE,27,1.0,3.0,59,0.00,,,0.00,Wunderground v.1.15,2013-01-26 20:47:00,
2013-01-26 14:52:00,25.3,13.0,30.43,NE,43,3.0,3.0,59,0.00,,,0.00,Wunderground v.1.15,2013-01-26 20:52:00,
2013-01-26 14:57:00,25.2,12.5,30.43,NNW,342,0.0,4.0,58,0.00,,,0.00,Wunderground v.1.15,2013-01-26 20:57:00,
2013-01-26 15:02:00,25.1,12.4,30.43,NNE,22,0.0,4.0,58,0.00,,,0.00,Wunderground v.1.15,2013-01-26 21:02:00,
2013-01-26 15:08:00,25.0,12.7,30.42,NNE,15,0.0,4.0,59,0.00,,,0.00,Wunderground v.1.15,2013-01-26 21:08:00,
2013-01-26 15:13:00,24.9,12.6,30.42,ESE,102,0.0,1.0,59,0.00,,,0.00,Wunderground v.1.15,2013-01-26 21:13:00,
2013-01-26 15:18:00,24.7,12.4,30.42,East,85,2.0,3.0,59,0.00,,,0.00,Wunderground v.1.15,2013-01-26 21:18:00,
2013-01-26 15:24:00,24.5,12.2,30.43,NE,47,0.0,2.0,59,0.00,,,0.00,Wunderground v.1.15,2013-01-26 21:24:00,
2013-01-26 15:29:00,24.3,12.0,30.43,NE,46,0.0,2.0,59,0.00,,,0.00,Wunderground v.1.15,2013-01-26 21:29:00,
2013-01-26 15:34:00,24.3,11.2,30.43,NNE,29,0.0,1.0,57,0.00,,,0.00,Wunderground v.1.15,2013-01-26 21:34:00,
2013-01-26 15:40:00,23.9,10.9,30.43,NNE,29,0.0,0.0,57,0.00,,,0.00,Wunderground v.1.15,2013-01-26 21:40:00,
2013-01-26 15:45:00,23.6,11.0,30.43,NNE,29,0.0,0.0,58,0.00,,,0.00,Wunderground v.1.15,2013-01-26 21:45:00,
2013-01-26 15:50:00,23.2,10.6,30.43,NNE,29,0.0,0.0,58,0.00,,,0.00,Wunderground v.1.15,2013-01-26 21:50:00,
2013-01-26 15:55:00,22.9,10.3,30.43,NNE,29,0.0,0.0,58,0.00,,,0.00,Wunderground v.1.15,2013-01-26 21:55:00,
2013-01-26 16:00:00,22.8,10.6,30.43,NNE,29,0.0,0.0,59,0.00,,,0.00,Wunderground v.1.15,2013-01-26 22:00:00,
2013-01-26 16:05:00,23.5,12.0,30.44,NNE,28,0.0,1.0,61,0.00,,,0.00,Wunderground v.1.15,2013-01-26 22:05:00,
2013-01-26 16:10:00,23.4,11.9,30.43,NNE,28,0.0,0.0,61,0.00,,,0.00,Wunderground v.1.15,2013-01-26 22:10:00,
2013-01-26 16:15:00,23.4,11.9,30.43,NE,42,2.0,2.0,61,0.00,,,0.00,Wunderground v.1.15,2013-01-26 22:15:00,
2013-01-26 16:20:00,23.4,11.9,30.42,East,82,1.0,1.0,61,0.00,,,0.00,Wunderground v.1.15,2013-01-26 22:20:00,
2013-01-26 16:25:00,23.5,12.4,30.42,ENE,70,1.0,3.0,62,0.00,,,0.00,Wunderground v.1.15,2013-01-26 22:25:00,
2013-01-26 16:30:00,23.4,12.3,30.42,East,96,0.0,1.0,62,0.00,,,0.00,Wunderground v.1.15,2013-01-26 22:30:00,
2013-01-26 16:36:00,23.3,11.8,30.41,East,94,0.0,2.0,61,0.00,,,0.00,Wunderground v.1.15,2013-01-26 22:36:00,
2013-01-26 16:41:00,23.2,12.1,30.42,East,94,0.0,0.0,62,0.00,,,0.00,Wunderground v.1.15,2013-01-26 22:41:00,
2013-01-26 16:46:00,23.0,11.9,30.42,East,94,0.0,0.0,62,0.00,,,0.00,Wunderground v.1.15,2013-01-26 22:46:00,
2013-01-26 16:52:00,22.7,11.6,30.42,East,94,0.0,0.0,62,0.00,,,0.00,Wunderground v.1.15,2013-01-26 22:52:00,
2013-01-26 16:57:00,22.4,11.3,30.42,East,94,0.0,0.0,62,0.00,,,0.00,Wunderground v.1.15,2013-01-26 22:57:00,
2013-01-26 17:02:00,21.6,10.6,30.42,NNE,29,0.0,0.0,62,0.00,,,0.00,Wunderground v.1.15,2013-01-26 23:02:00,
2013-01-26 17:07:00,21.4,10.4,30.42,NNE,29,0.0,0.0,62,0.00,,,0.00,Wunderground v.1.15,2013-01-26 23:07:00,
2013-01-26 17:12:00,21.2,10.6,30.42,NNE,29,0.0,0.0,63,0.00,,,0.00,Wunderground v.1.15,2013-01-26 23:12:00,
2013-01-26 17:17:00,20.9,10.3,30.43,NNE,29,0.0,0.0,63,0.00,,,0.00,Wunderground v.1.15,2013-01-26 23:17:00,
2013-01-26 17:22:00,20.7,10.4,30.42,NNE,29,0.0,0.0,64,0.00,,,0.00,Wunderground v.1.15,2013-01-26 23:22:00,
2013-01-26 17:27:00,20.5,10.2,30.42,NNE,29,0.0,0.0,64,0.00,,,0.00,Wunderground v.1.15,2013-01-26 23:27:00,
2013-01-26 17:32:00,20.3,10.4,30.41,NNE,29,0.0,0.0,65,0.00,,,0.00,Wunderground v.1.15,2013-01-26 23:32:00,
2013-01-26 17:38:00,19.6,10.7,30.42,South,190,0.0,2.0,68,0.00,,,0.00,Wunderground v.1.15,2013-01-26 23:38:00,
2013-01-26 17:43:00,19.1,10.3,30.42,South,190,0.0,0.0,68,0.00,,,0.00,Wunderground v.1.15,2013-01-26 23:43:00,
2013-01-26 17:49:00,18.8,10.3,30.42,South,190,0.0,1.0,69,0.00,,,0.00,Wunderground v.1.15,2013-01-26 23:49:00,
2013-01-26 17:54:00,18.4,10.2,30.42,South,190,0.0,0.0,70,0.00,,,0.00,Wunderground v.1.15,2013-01-26 23:54:00,
2013-01-26 17:59:00,18.2,10.4,30.42,South,190,0.0,0.0,71,0.00,,,0.00,Wunderground v.1.15,2013-01-26 23:59:00,
2013-01-26 18:04:00,18.1,10.6,30.42,South,190,0.0,0.0,72,0.00,,,0.00,Wunderground v.1.15,2013-01-27 00:04:00,
2013-01-26 18:09:00,19.7,10.5,30.41,NNE,29,0.0,0.0,67,0.00,,,0.00,Wunderground v.1.15,2013-01-27 00:09:00,
2013-01-26 18:14:00,19.7,10.5,30.42,NNE,29,0.0,0.0,67,0.00,,,0.00,Wunderground v.1.15,2013-01-27 00:14:00,
2013-01-26 18:19:00,19.7,11.2,30.42,NNE,29,0.0,0.0,69,0.00,,,0.00,Wunderground v.1.15,2013-01-27 00:19:00,
2013-01-26 18:24:00,19.8,10.9,30.42,NNE,29,0.0,0.0,68,0.00,,,0.00,Wunderground v.1.15,2013-01-27 00:24:00,
2013-01-26 18:29:00,20.0,11.1,30.42,NNE,29,0.0,0.0,68,0.00,,,0.00,Wunderground v.1.15,2013-01-27 00:29:00,
2013-01-26 18:34:00,20.2,11.3,30.42,NNE,29,0.0,0.0,68,0.00,,,0.00,Wunderground v.1.15,2013-01-27 00:34:00,
2013-01-26 18:39:00,20.3,11.1,30.43,NNE,29,0.0,0.0,67,0.00,,,0.00,Wunderground v.1.15,2013-01-27 00:39:00,
2013-01-26 18:45:00,20.4,10.8,30.43,NNE,29,0.0,0.0,66,0.00,,,0.00,Wunderground v.1.15,2013-01-27 00:45:00,
2013-01-26 18:50:00,20.5,11.3,30.43,NNE,29,0.0,0.0,67,0.00,,,0.00,Wunderground v.1.15,2013-01-27 00:50:00,
2013-01-26 18:55:00,20.5,11.6,30.44,NNE,29,0.0,0.0,68,0.00,,,0.00,Wunderground v.1.15,2013-01-27 00:55:00,
2013-01-26 19:00:00,19.9,13.6,30.43,SSE,167,0.0,0.0,76,0.00,,,0.00,Wunderground v.1.15,2013-01-27 01:00:00,
2013-01-26 19:05:00,20.3,13.3,30.43,SSE,167,0.0,0.0,74,0.00,,,0.00,Wunderground v.1.15,2013-01-27 01:05:00,
2013-01-26 19:10:00,20.7,13.7,30.42,SSE,167,0.0,1.0,74,0.00,,,0.00,Wunderground v.1.15,2013-01-27 01:10:00,
2013-01-26 19:16:00,20.6,11.7,30.43,NNE,29,0.0,1.0,68,0.00,,,0.00,Wunderground v.1.15,2013-01-27 01:16:00,
2013-01-26 19:21:00,20.7,11.5,30.43,NNE,29,0.0,1.0,67,0.00,,,0.00,Wunderground v.1.15,2013-01-27 01:21:00,
2013-01-26 19:26:00,20.7,11.5,30.42,East,96,0.0,1.0,67,0.00,,,0.00,Wunderground v.1.15,2013-01-27 01:26:00,
2013-01-26 19:31:00,20.8,11.9,30.43,ESE,112,0.0,0.0,68,0.00,,,0.00,Wunderground v.1.15,2013-01-27 01:31:00,
2013-01-26 19:36:00,20.6,11.7,30.42,ESE,112,0.0,1.0,68,0.00,,,0.00,Wunderground v.1.15,2013-01-27 01:36:00,
2013-01-26 19:42:00,20.7,11.5,30.43,ESE,112,0.0,0.0,67,0.00,,,0.00,Wunderground v.1.15,2013-01-27 01:42:00,
2013-01-26 19:47:00,20.9,11.3,30.43,ESE,111,0.0,1.0,66,0.00,,,0.00,Wunderground v.1.15,2013-01-27 01:47:00,
2013-01-26 19:52:00,21.1,11.2,30.42,SE,142,0.0,0.0,65,0.00,,,0.00,Wunderground v.1.15,2013-01-27 01:52:00,
2013-01-26 19:58:00,21.3,11.0,30.43,SE,142,0.0,0.0,64,0.00,,,0.00,Wunderground v.1.15,2013-01-27 01:58:00,
2013-01-26 20:03:00,21.4,11.1,30.43,SE,142,0.0,0.0,64,0.00,,,0.00,Wunderground v.1.15,2013-01-27 02:03:00,
2013-01-26 20:08:00,21.5,11.2,30.43,SE,142,0.0,1.0,64,0.00,,,0.00,Wunderground v.1.15,2013-01-27 02:08:00,
2013-01-26 20:13:00,21.6,10.9,30.43,SE,142,0.0,1.0,63,0.00,,,0.00,Wunderground v.1.15,2013-01-27 02:13:00,
2013-01-26 20:18:00,21.6,10.9,30.43,SE,142,0.0,1.0,63,0.00,,,0.00,Wunderground v.1.15,2013-01-27 02:18:00,
2013-01-26 20:23:00,21.6,11.3,30.43,SE,142,0.0,0.0,64,0.00,,,0.00,Wunderground v.1.15,2013-01-27 02:23:00,
2013-01-26 20:28:00,21.6,11.3,30.43,SE,142,0.0,0.0,64,0.00,,,0.00,Wunderground v.1.15,2013-01-27 02:28:00,
2013-01-26 20:33:00,21.7,11.4,30.43,SE,142,0.0,1.0,64,0.00,,,0.00,Wunderground v.1.15,2013-01-27 02:33:00,
2013-01-26 20:38:00,21.6,11.3,30.43,SE,142,0.0,1.0,64,0.00,,,0.00,Wunderground v.1.15,2013-01-27 02:38:00,
2013-01-26 20:43:00,21.6,11.3,30.43,SE,142,0.0,0.0,64,0.00,,,0.00,Wunderground v.1.15,2013-01-27 02:43:00,
2013-01-26 20:48:00,21.5,11.5,30.43,SE,142,0.0,0.0,65,0.00,,,0.00,Wunderground v.1.15,2013-01-27 02:48:00,
2013-01-26 20:53:00,21.5,11.2,30.43,SE,142,0.0,0.0,64,0.00,,,0.00,Wunderground v.1.15,2013-01-27 02:53:00,
2013-01-26 20:59:00,21.5,10.8,30.43,SSE,158,0.0,1.0,63,0.00,,,0.00,Wunderground v.1.15,2013-01-27 02:59:00,
2013-01-26 21:05:00,21.5,10.8,30.43,SSE,159,0.0,0.0,63,0.00,,,0.00,Wunderground v.1.15,2013-01-27 03:05:00,
2013-01-26 21:11:00,21.5,10.8,30.44,SSE,163,0.0,0.0,63,0.00,,,0.00,Wunderground v.1.15,2013-01-27 03:11:00,
2013-01-26 21:16:00,21.5,10.8,30.44,SSE,163,0.0,0.0,63,0.00,,,0.00,Wunderground v.1.15,2013-01-27 03:16:00,
2013-01-26 21:21:00,22.6,12.6,30.43,South,183,2.0,4.0,65,0.00,,,0.00,Wunderground v.1.15,2013-01-27 03:21:00,
2013-01-26 21:26:00,22.7,12.7,30.43,SSW,200,4.0,6.0,65,0.00,,,0.00,Wunderground v.1.15,2013-01-27 03:26:00,
2013-01-26 21:31:00,22.7,12.7,30.43,SSE,149,3.0,5.0,65,0.00,,,0.00,Wunderground v.1.15,2013-01-27 03:31:00,
2013-01-26 21:36:00,22.7,12.7,30.43,South,188,5.0,5.0,65,0.00,,,0.00,Wunderground v.1.15,2013-01-27 03:36:00,
2013-01-26 21:41:00,22.8,12.8,30.43,South,169,3.0,4.0,65,0.00,,,0.00,Wunderground v.1.15,2013-01-27 03:41:00,
2013-01-26 21:46:00,22.9,13.2,30.44,South,171,4.0,5.0,66,0.00,,,0.00,Wunderground v.1.15,2013-01-27 03:46:00,
2013-01-26 21:51:00,22.9,13.2,30.43,SSW,209,3.0,4.0,66,0.00,,,0.00,Wunderground v.1.15,2013-01-27 03:51:00,
2013-01-26 21:56:00,23.0,13.3,30.44,South,171,2.0,4.0,66,0.00,,,0.00,Wunderground v.1.15,2013-01-27 03:56:00,
2013-01-26 22:01:00,23.0,13.3,30.43,SSE,150,9.0,9.0,66,0.00,,,0.00,Wunderground v.1.15,2013-01-27 04:01:00,
2013-01-26 22:06:00,23.0,13.3,30.43,SSW,203,3.0,9.0,66,0.00,,,0.00,Wunderground v.1.15,2013-01-27 04:06:00,
2013-01-26 22:11:00,23.1,13.8,30.44,SSW,202,4.0,4.0,67,0.00,,,0.00,Wunderground v.1.15,2013-01-27 04:11:00,
2013-01-26 22:17:00,23.2,13.9,30.44,SW,217,5.0,5.0,67,0.00,,,0.00,Wunderground v.1.15,2013-01-27 04:17:00,
2013-01-26 22:22:00,23.2,13.5,30.44,SSW,192,2.0,4.0,66,0.00,,,0.00,Wunderground v.1.15,2013-01-27 04:22:00,
2013-01-26 22:27:00,23.3,13.6,30.43,SSE,159,2.0,7.0,66,0.00,,,0.00,Wunderground v.1.15,2013-01-27 04:27:00,
2013-01-26 22:32:00,23.3,14.0,30.42,SSE,156,5.0,8.0,67,0.00,,,0.00,Wunderground v.1.15,2013-01-27 04:32:00,
2013-01-26 22:37:00,23.3,14.0,30.42,SSE,160,3.0,8.0,67,0.00,,,0.00,Wunderground v.1.15,2013-01-27 04:37:00,
2013-01-26 22:42:00,23.3,14.0,30.42,SSE,152,3.0,6.0,67,0.00,,,0.00,Wunderground v.1.15,2013-01-27 04:42:00,
2013-01-26 22:47:00,23.3,13.6,30.42,South,175,3.0,7.0,66,0.00,,,0.00,Wunderground v.1.15,2013-01-27 04:47:00,
2013-01-26 22:52:00,23.3,14.0,30.42,SSE,161,2.0,4.0,67,0.00,,,0.00,Wunderground v.1.15,2013-01-27 04:52:00,
2013-01-26 22:57:00,23.3,14.0,30.43,SSW,196,4.0,5.0,67,0.00,,,0.00,Wunderground v.1.15,2013-01-27 04:57:00,
2013-01-26 23:00:00,23.3,14.0,30.43,SSE,158,3.0,3.0,67,0.00,,,0.00,Wunderground v.1.15,2013-01-27 05:00:00,
2013-01-26 23:01:00,23.2,13.9,30.43,South,183,4.0,5.0,67,0.00,,,0.00,Wunderground v.1.15,2013-01-27 05:01:00,
2013-01-26 23:02:00,23.2,13.9,30.42,South,183,6.0,6.0,67,0.00,,,0.00,Wunderground v.1.15,2013-01-27 05:02:00,
2013-01-26 23:07:00,23.2,13.9,30.42,South,178,2.0,6.0,67,0.00,,,0.00,Wunderground v.1.15,2013-01-27 05:07:00,
2013-01-26 23:12:00,23.2,14.2,30.42,SSW,196,4.0,5.0,68,0.00,,,0.00,Wunderground v.1.15,2013-01-27 05:12:00,
2013-01-26 23:18:00,23.3,14.3,30.41,SSE,162,2.0,6.0,68,0.00,,,0.00,Wunderground v.1.15,2013-01-27 05:18:00,
2013-01-26 23:23:00,23.3,14.3,30.41,SSE,164,3.0,6.0,68,0.00,,,0.00,Wunderground v.1.15,2013-01-27 05:23:00,
2013-01-26 23:28:00,23.3,14.0,30.42,SSE,153,3.0,6.0,67,0.00,,,0.00,Wunderground v.1.15,2013-01-27 05:28:00,
2013-01-26 23:34:00,23.3,14.3,30.42,South,175,3.0,7.0,68,0.00,,,0.00,Wunderground v.1.15,2013-01-27 05:34:00,
2013-01-26 23:39:00,23.4,14.4,30.42,South,169,3.0,7.0,68,0.00,,,0.00,Wunderground v.1.15,2013-01-27 05:39:00,
2013-01-26 23:45:00,23.5,14.5,30.42,South,179,3.0,4.0,68,0.00,,,0.00,Wunderground v.1.15,2013-01-27 05:45:00,
2013-01-26 23:50:00,23.6,14.6,30.41,South,182,7.0,7.0,68,0.00,,,0.00,Wunderground v.1.15,2013-01-27 05:50:00,
2013-01-26 23:56:00,23.7,14.3,30.40,South,171,4.0,8.0,67,0.00,,,0.00,Wunderground v.1.15,2013-01-27 05:56:00,